User: anonymous   Login
Location: Naloco
(16.5478°S, 37.1017°E)
Time: 02:46:49
(UTC+00:00)
Language:

BREEZE-M DEB (TANK) - Orbit

View from above orbital plane
View from above orbital plane
View from above satellite
View from above satellite

Ground track
Ground track

The orbit data is extracted from the following two-line orbital elements,

1 37187U 10053C   20301.92325074 +.00000880 +00000-0 +30928-3 0  9994
2 37187 049.5903 352.6854 5179604 252.2376 046.6926 05.27919615191863
Epoch (UTC): 27 October 2020 22:09:28
Eccentricity: 0.5179604
inclination: 49.5903°
perigee height: 338 km
apogee height: 14770 km
right ascension of ascending node: 352.6854°
argument of perigee: 252.2376°
revolutions per day: 5.27919615
mean anomaly at epoch: 46.6926°
orbit number at epoch: 19186

The dashed part of the orbit path shows where the satellite is in the earth's shadow,  

DLR